Regional Weather Roundup
Issued by NWS

Home | Current Version | Previous Version | Graphics & Text | Print | Product List | Glossary On
Versions: 1 2 3 4 5 6 7 8 9 10 11 12 13 14 15 16 17 18 19 20 21 22 23 24 25 26 27 28 29 30 31 32 33 34 35 36 37 38 39 40 41 42 43 44 45 46 47 48 49 50
000
ASUS43 KDMX 210306
RWRIA

WEATHER ROUNDUP FOR IOWA
NATIONAL WEATHER SERVICE DES MOINES IA
900 PM CST SAT JAN 20 2018

NOTE: "FAIR" INDICATES FEW OR NO CLOUDS BELOW 12,000 FEET WITH NO
SIGNIFICANT WEATHER AND/OR OBSTRUCTIONS TO VISIBILITY.

* - THESE STATIONS ARE NOT NWS STATIONS...THUS NOT UNDER NWS
QUALITY CONTROL.  THEY ALSO DO NOT REPORT WEATHER SUCH
AS PRECIPITATION OR FOG.

IAZ001>003-012>014-020>022-031>034-043>046-210400-
   NORTHWEST IOWA

CITY           SKY/WX    TMP DP  RH WIND       PRES   REMARKS
CARROLL *      CLOUDY    30  28  93 NW5       29.89R WCI  25
CHEROKEE *     CLOUDY    33  31  93 CALM      29.90R
DENISON *      CLOUDY    30  28  93 CALM      29.90R
LE MARS *      CLOUDY    32  30  93 N6        29.90R WCI  26
ORANGE CITY *  CLOUDY    37  36  93 NE7       29.89F WCI  32
SHELDON *      CLOUDY    32  30  93 NE6       29.89R WCI  26
SIOUX CITY     CLOUDY    40  32  73 NE12      29.89R WCI  33
SPENCER        CLOUDY    32  29  88 NE9       29.90R WCI  24
STORM LAKE *   CLOUDY    36  34  93 NE12      29.88S WCI  27
$$

IAZ055>058-069>071-079>083-090>094-210400-
   SOUTHWEST IOWA

CITY           SKY/WX    TMP DP  RH WIND       PRES   REMARKS
ATLANTIC *     CLOUDY    36  36 100 N3        29.88R FOG
AUDUBON *      CLOUDY    30  27  86 CALM      29.89R
CLARINDA *     CLOUDY    39  39 100 CALM        N/A
COUNCIL BLFS * CLOUDY    41  41 100 E5        29.87R
CRESTON *      CLOUDY    41  39  93 SE5       29.88S
HARLAN  *      CLOUDY    34  34 100 CALM      29.91R
LAMONI         CLOUDY    45  40  82 CALM      29.86F
RED OAK *      CLOUDY    45  41  87 SE5       29.87S
SHENANDOAH *   CLOUDY    41  41 100 CALM      29.88R
$$

IAZ047>049-059>061-072>074-084-210400-
   CENTRAL IOWA

CITY           SKY/WX    TMP DP  RH WIND       PRES   REMARKS
AMES           CLOUDY    33  33 100 CALM      29.89F FOG
ANKENY *       CLOUDY    36  34  93 CALM      29.91S FOG
BOONE *        CLOUDY    32  32 100 SE7       29.88S FOG     WCI  26
CHARITON *     CLOUDY    43  39  87 SE7       29.88F
DES MOINES     CLOUDY    40  36  86 E5        29.89F
GRINNELL*      CLOUDY    37  35  93 E7        29.91F FOG     WCI  31
KNOXVILLE *    CLOUDY    41  37  87 E5        29.88F
MARSHALLTOWN   CLOUDY    31  31 100 SE3       29.90S FOG
NEWTON *       CLOUDY    36  36 100 E6        29.90F FOG     WCI  31
PELLA *        CLOUDY    41  37  86 SE5       29.91F
PERRY *          N/A     33  33  99 E3        29.89S FOG
$$

IAZ004>006-015-016-023>025-035-036-210400-
   NORTH CENTRAL IOWA

CITY           SKY/WX    TMP DP  RH WIND       PRES   REMARKS
ALGONA *       CLOUDY    34 N/A N/A N6        29.91R WCI  29
CLARION *      CLOUDY    32  32 100 NE6       29.90R WCI  26
ESTHERVILLE    CLOUDY    32  31  96 N7        29.91R WCI  26
FORT DODGE *   CLOUDY    31  29  92 CALM      29.90R
MASON CITY     CLOUDY    32  30  92 NE5       29.91S WCI  27
FOREST CITY *    N/A     32  30  93 N5        29.90S WCI  27
WEBSTER CITY * CLOUDY    34  32  93 CALM      29.88R
IOWA FALLS *     N/A     35  33  92 SE5       29.91R WCI  30
$$

IAZ007>011-017>019-026>030-037>042-050>054-066-210400-
   NORTHEAST IOWA

CITY           SKY/WX    TMP DP  RH WIND       PRES   REMARKS
CEDAR RAPIDS   CLOUDY    37  35  92 SE5       29.92F FOG     WCI  33
CHARLES CITY *   N/A     36  36 100 E6        29.90F WCI  31
CLINTON *      CLOUDY    36  34  92 SE5       29.96S FOG     WCI  32
DECORAH *        N/A     37  34  87 CALM      29.91S
DUBUQUE          N/A     31  29  92 SW3       29.94R FOG
MONTICELLO *   MOCLDY    30  30 100 CALM      29.93F FOG
OELWEIN *        N/A     32  32 100 SE6       29.92F WCI  26
WATERLOO         N/A     33  31  92 CALM      29.91F
$$

IAZ064-065-067-068-078-210400-
   EAST CENTRAL IOWA

CITY           SKY/WX    TMP DP  RH WIND       PRES   REMARKS
DAVENPORT      CLOUDY    38  34  85 CALM      29.97S FOG
IOWA CITY      CLOUDY    38  34  85 CALM      29.95F
MT. PLEASANT * CLOUDY    39  36  87 SE3       29.94F
MUSCATINE *    CLOUDY    39  36  87 CALM      29.96S
QUAD CITIES    CLOUDY    42  37  82 CALM      29.95S
$$

IAZ062-063-075>077-085>089-095>099-210400-
   SOUTHEAST IOWA

CITY           SKY/WX    TMP DP  RH WIND       PRES   REMARKS
BURLINGTON     CLOUDY    42  38  85 SE3       29.94F
FAIRFIELD *    CLOUDY    41  37  87 SE5       29.92F
FORT MADISON * CLOUDY    45  41  87 S6        29.95S
KEOKUK *       CLOUDY    45  41  87 NE5       29.92F
OSKALOOSA *    CLOUDY    39  36  90 SE5       29.91F
OTTUMWA        CLOUDY    42  37  82 SE6       29.91F
WASHINGTON *   CLOUDY    39  39 100 SE8       29.94F WCI  34
$$

ABBREVIATIONS USED IN REMARKS
   TC - TEMPERATURES IN CELSIUS
  WCI - WIND CHILL INDEX
   HX - HEAT INDEX
  VSB - VISIBILITY
$$




USA.gov is the U.S. government's official web portal to all federal, state and local government web resources and services.